[Date Prev][Date Next][Thread Prev][Thread Next] - [Date Index][Thread Index][Author Index]
2 Line ISS Keps 5-5
- Subject: [sarex] 2 Line ISS Keps 5-5
- From: "Dave Larsen PhD" <doc@xxxxxxxxxxx>
- Date: Fri, 4 May 2007 19:53:39 -0700
ISS
1 25544U 98067A 07124.68270509 .00017885 00000-0 10856-3 0 1434
2 25544 051.6339 328.6632 0010664 143.6648 302.9204 15.77550218483903
----
Sent via sarex@amsat.org. Opinions expressed are those of the author.
Not an AMSAT member? Join now to support the amateur satellite program!
Subscription settings: http://amsat.org/mailman/listinfo/sarex
AMSAT Home